SL-8 R/B

Satellite information

Favourite Embed

Satellite Type and Status

ROCKET BODYIN ORBIT

Key statistics

Satellite SL-8 R/B at a glance.

Uptime

13689

Days in orbit

Revolutions

≈ 14.4

Per day

Orbit

LEO

Low Earth Orbit

Inclination

74.0

Latest

Satellite identification and parameters

Extended collection of information and parameters for SL-8 R/B.

Object identification

Identified? True

Debris? False

Object name: SL-8 R/B

International designator: 1988-053B

Object number (NORAD): 19257

Object ID (CCSDS): 19257

Country: COMMONWEALTH OF INDEPENDENT STATES (CIS)

Current information (Y/N): Y

RCS size: LARGE

Orbital parameters

Period: 100.079 minutes

Inclination: 74.0478 deg

SMA: 7140.408 km

Apoapsis: 775.843 km

Periapsis: 748.703 km

RAAN: 273.5639 deg

Eccentricy: 0.00190047

Argument of periapsis: 117.9109 deg

Mean anomaly: 43.8727 deg

Mean motion: 14.38858851 rev/day

Mean motion (dot): 0.00000441 rev/day2

B* drag term: 0.00015146036 1/REarth

Two-line elements (TLE)

Creation date: Dec. 12, 2025, 10:14 a.m.

Reference frame: TEME

Reference center: EARTH

Epoch: Dec. 12, 2025, 6:45 a.m. UTC

TLE line 0: 0 SL-8 R/B

TLE line 1: 1 19257U 88053B 25346.28152590 .00000441 00000-0 15146-3 0 9999

TLE line 2: 2 19257 74.0478 273.5639 0019005 117.9109 43.8727 14.38858851964027

Live tracking on map

Real-time ground track for satellite SL-8 R/B.

In-orbit conjunctions

A list of the most updated potential collisions computed for object SL-8 R/B.

Target Orbit TCA Probability of collision Miss distance Type
CZ-4 DEB SSO 2025-11-25 09:44:47 0.0001174548 301.0 (m) DEBRIS
COSMOS 2251 DEB LEO 2025-10-03 08:29:54 0.0002743016 391.0 (m) DEBRIS
CZ-6A DEB LEO 2025-08-23 20:01:44 0.001443897 194.0 (m) DEBRIS
CZ-6A DEB SSO 2025-05-22 07:07:20 0.0003536689 322.0 (m) DEBRIS
FENGYUN 1C DEB SSO 2025-04-04 09:26:26 0.0001127108 247.0 (m) DEBRIS

Associated space launch

Military communications satellite

SL-8 R/B was lifted into orbit during the mission ‘Kosmos-3M | Strela-2M 45’, on board a Kosmos-3M space rocket.

The launch took place on June 21, 1988, 4:26 p.m. from 133/3 (133L).

For more information about the launch, click the button.

Launch to space Kosmos-3M | Strela-2M 45
Kosmos-3M | Strela-2M 45

Agency: N/A

Status: Launch Successful

Launch date: June 21, 1988, 4:26 p.m. UTC

Rocket: Kosmos-3M

Launch pad: 133/3 (133L)

Location: Plesetsk Cosmodrome, Russian Federation

...

Latest news about this satellite

There are no fresh news available about this satellite. Check back as we update our databases every day.


Newsletter sign-up

Weekly statistics, charts and insights to help you stay on top of the space industry.